| time (UTC) | temp F | wind direction | speed knots | gust knots | rain 1hr in | rain 24hr in | rain mn in | humidity % | barometer mb |
| 20260507105004 | 44 | 360 | 0.0 | 1.7 | 0.00 | 0.96 | 0.19 | 94 | 1005.9 |
| 20260507104512 | 44 | 360 | 0.0 | 1.7 | 0.00 | 0.96 | 0.19 | 94 | 1005.7 |
| 20260507104006 | 44 | 360 | 0.0 | 1.7 | 0.00 | 0.96 | 0.19 | 94 | 1005.7 |
| 20260507103507 | 44 | 360 | 0.9 | 1.7 | 0.00 | 0.96 | 0.19 | 94 | 1005.6 |
| 20260507103016 | 43 | 360 | 0.0 | 2.6 | 0.00 | 0.96 | 0.19 | 94 | 1005.5 |
| 20260507102507 | 43 | 360 | 0.9 | 2.6 | 0.00 | 0.96 | 0.19 | 94 | 1005.4 |
| 20260507102010 | 43 | 360 | 0.0 | 2.6 | 0.00 | 0.96 | 0.19 | 94 | 1005.4 |
| 20260507101531 | 43 | 360 | 0.0 | 2.6 | 0.00 | 0.96 | 0.19 | 95 | 1005.5 |
| 20260507101009 | 43 | 360 | 0.0 | 2.6 | 0.00 | 0.96 | 0.19 | 95 | 1005.5 |
| 20260507100507 | 43 | 360 | 0.9 | 2.6 | 0.00 | 0.96 | 0.19 | 95 | 1005.6 |
| 20260507100023 | 43 | 360 | 0.0 | 1.7 | 0.00 | 0.96 | 0.19 | 95 | 1005.4 |
| 20260507095511 | 43 | 360 | 0.0 | 1.7 | 0.00 | 0.96 | 0.19 | 95 | 1005.3 |
| 20260507095002 | 43 | 360 | 0.0 | 1.7 | 0.00 | 0.96 | 0.19 | 95 | 1005.1 |
| 20260507094507 | 43 | 360 | 0.9 | 1.7 | 0.00 | 0.96 | 0.19 | 95 | 1005.1 |
| 20260507094005 | 43 | 360 | 0.0 | 1.7 | 0.00 | 0.96 | 0.19 | 95 | 1005.2 |
| 20260507093506 | 43 | 360 | 0.0 | 1.7 | 0.00 | 0.96 | 0.19 | 95 | 1005.3 |
| 20260507093015 | 43 | 360 | 0.0 | 1.7 | 0.00 | 0.96 | 0.19 | 95 | 1005.4 |
| 20260507092506 | 43 | 360 | 0.0 | 1.7 | 0.01 | 0.96 | 0.19 | 95 | 1005.4 |
| 20260507092011 | 43 | 360 | 0.0 | 1.7 | 0.01 | 0.96 | 0.19 | 95 | 1005.3 |
| 20260507091520 | 43 | 360 | 0.0 | 1.7 | 0.01 | 0.96 | 0.19 | 95 | 1005.5 |
| 20260507091009 | 43 | 360 | 0.0 | 1.7 | 0.01 | 0.96 | 0.19 | 95 | 1005.6 |
| 20260507090508 | 43 | 360 | 0.0 | 1.7 | 0.01 | 0.96 | 0.19 | 95 | 1005.1 |
| 20260507090034 | 43 | 360 | 0.0 | 0.0 | 0.01 | 0.96 | 0.19 | 95 | 1004.8 |
| 20260507085508 | 43 | 360 | 0.0 | 0.0 | 0.01 | 0.96 | 0.19 | 95 | 1004.8 |
| 20260507085009 | 44 | 360 | 0.0 | 0.0 | 0.01 | 0.96 | 0.19 | 95 | 1004.5 |
| 20260507084534 | 44 | 360 | 0.0 | 1.7 | 0.01 | 0.96 | 0.19 | 95 | 1004.5 |
| 20260507084009 | 44 | 360 | 0.0 | 1.7 | 0.01 | 0.96 | 0.19 | 95 | 1004.8 |
| 20260507083505 | 44 | 360 | 0.0 | 1.7 | 0.01 | 0.96 | 0.19 | 95 | 1005.0 |
| 20260507083010 | 44 | 360 | 0.0 | 1.7 | 0.01 | 0.96 | 0.19 | 95 | 1005.3 |
| 20260507082507 | 44 | 360 | 0.0 | 1.7 | 0.00 | 0.95 | 0.18 | 95 | 1005.2 |
| 20260507082007 | 44 | 360 | 0.0 | 1.7 | 0.00 | 0.95 | 0.18 | 95 | 1005.2 |
| 20260507081520 | 44 | 360 | 0.0 | 1.7 | 0.00 | 0.95 | 0.18 | 95 | 1005.2 |
| 20260507081007 | 44 | 360 | 0.0 | 1.7 | 0.00 | 0.95 | 0.18 | 94 | 1005.3 |
| 20260507080510 | 44 | 360 | 0.0 | 1.7 | 0.00 | 0.95 | 0.18 | 94 | 1005.4 |
| 20260507080027 | 44 | 360 | 0.0 | 1.7 | 0.00 | 0.95 | 0.18 | 94 | 1005.4 |
| 20260507075509 | 44 | 360 | 0.0 | 1.7 | 0.00 | 0.95 | 0.18 | 93 | 1005.2 |
| 20260507075010 | 44 | 360 | 0.0 | 1.7 | 0.00 | 0.95 | 0.18 | 94 | 1005.0 |
| 20260507074537 | 45 | 360 | 0.0 | 1.7 | 0.00 | 0.95 | 0.18 | 94 | 1004.8 |
| 20260507074011 | 45 | 360 | 0.0 | 1.7 | 0.00 | 0.95 | 0.18 | 94 | 1004.8 |
| 20260507073510 | 45 | 360 | 0.0 | 1.7 | 0.00 | 0.95 | 0.18 | 94 | 1005.0 |
| 20260507073024 | 45 | 360 | 0.0 | 1.7 | 0.00 | 0.95 | 0.18 | 94 | 1004.9 |
| 20260507072510 | 45 | 360 | 0.0 | 1.7 | 0.00 | 0.95 | 0.18 | 93 | 1005.0 |
| 20260507072009 | 45 | 360 | 0.0 | 1.7 | 0.00 | 0.95 | 0.18 | 93 | 1005.0 |
| 20260507071503 | 45 | 360 | 0.0 | 1.7 | 0.00 | 0.95 | 0.18 | 93 | 1004.7 |
| 20260507071003 | 45 | 360 | 0.9 | 3.5 | 0.00 | 0.95 | 0.18 | 93 | 1004.7 |
| 20260507070503 | 45 | 360 | 0.9 | 3.5 | 0.00 | 0.95 | 0.18 | 93 | 1004.6 |
| 20260507070010 | 45 | 360 | 0.9 | 4.3 | 0.00 | 0.95 | 0.18 | 93 | 1004.4 |
| 20260507065503 | 45 | 360 | 0.9 | 4.3 | 0.01 | 0.95 | 0.18 | 93 | 1004.6 |
| 20260507065004 | 45 | 360 | 1.7 | 5.2 | 0.01 | 0.95 | 0.18 | 93 | 1004.6 |
| 20260507064504 | 45 | 360 | 0.9 | 5.2 | 0.01 | 0.95 | 0.18 | 93 | 1004.7 |
| 20260507064003 | 45 | 360 | 1.7 | 5.2 | 0.02 | 0.95 | 0.18 | 93 | 1004.7 |
| 20260507063504 | 46 | 360 | 0.9 | 2.6 | 0.03 | 0.95 | 0.18 | 93 | 1004.7 |
| 20260507063006 | 46 | 360 | 0.9 | 2.6 | 0.03 | 0.95 | 0.18 | 93 | 1004.3 |
| 20260507062503 | 46 | 360 | 0.9 | 2.6 | 0.04 | 0.95 | 0.18 | 93 | 1004.4 |
| 20260507062002 | 46 | 360 | 0.0 | 3.5 | 0.06 | 0.95 | 0.18 | 93 | 1004.3 |
| 20260507061504 | 46 | 360 | 1.7 | 4.3 | 0.07 | 0.95 | 0.18 | 93 | 1004.3 |
| 20260507061004 | 46 | 360 | 1.7 | 4.3 | 0.08 | 0.95 | 0.18 | 93 | 1004.1 |
| 20260507060504 | 46 | 360 | 0.9 | 5.2 | 0.08 | 0.95 | 0.18 | 93 | 1004.1 |
| 20260507060004 | 46 | 360 | 1.7 | 7.8 | 0.09 | 0.95 | 0.18 | 93 | 1004.0 |
| 20260507055503 | 46 | 360 | 3.5 | 8.7 | 0.08 | 0.94 | 0.17 | 93 | 1004.1 |
| 20260507055003 | 46 | 360 | 1.7 | 8.7 | 0.08 | 0.94 | 0.17 | 94 | 1004.2 |
| 20260507054505 | 47 | 360 | 0.9 | 5.2 | 0.08 | 0.94 | 0.17 | 94 | 1004.5 |
| 20260507054003 | 47 | 360 | 1.7 | 4.3 | 0.08 | 0.93 | 0.16 | 94 | 1004.5 |
| 20260507053505 | 47 | 360 | 0.9 | 4.3 | 0.07 | 0.92 | 0.15 | 94 | 1004.4 |
| 20260507053005 | 47 | 360 | 2.6 | 3.5 | 0.08 | 0.92 | 0.15 | 94 | 1004.4 |
| 20260507052503 | 47 | 360 | 1.7 | 4.3 | 0.08 | 0.91 | 0.14 | 94 | 1004.6 |
| 20260507052005 | 47 | 360 | 0.9 | 5.2 | 0.06 | 0.89 | 0.12 | 94 | 1004.6 |
| 20260507051506 | 47 | 360 | 1.7 | 5.2 | 0.07 | 0.88 | 0.11 | 94 | 1004.6 |
| 20260507051002 | 47 | 360 | 1.7 | 4.3 | 0.09 | 0.87 | 0.10 | 94 | 1004.7 |
| 20260507050503 | 47 | 360 | 0.9 | 4.3 | 0.09 | 0.87 | 0.10 | 94 | 1004.3 |
| 20260507050005 | 48 | 360 | 1.7 | 4.3 | 0.09 | 0.86 | 0.09 | 94 | 1004.1 |
| 20260507045505 | 48 | 360 | 0.9 | 3.5 | 0.09 | 0.86 | 0.09 | 94 | 1004.2 |
| 20260507045004 | 48 | 360 | 0.9 | 3.5 | 0.10 | 0.86 | 0.09 | 94 | 1004.2 |
| 20260507044506 | 48 | 360 | 1.7 | 4.3 | 0.11 | 0.86 | 0.09 | 94 | 1004.2 |
| 20260507044004 | 48 | 360 | 1.7 | 7.0 | 0.10 | 0.85 | 0.08 | 94 | 1004.1 |
| 20260507043504 | 48 | 360 | 1.7 | 7.0 | 0.11 | 0.85 | 0.08 | 94 | 1004.2 |
| 20260507043005 | 48 | 360 | 1.7 | 4.3 | 0.10 | 0.84 | 0.07 | 94 | 1004.5 |
| 20260507042506 | 48 | 360 | 0.9 | 4.3 | 0.10 | 0.83 | 0.06 | 94 | 1004.5 |
| 20260507042004 | 48 | 360 | 1.7 | 5.2 | 0.10 | 0.83 | 0.06 | 94 | 1004.5 |
| 20260507041511 | 49 | 360 | 2.6 | 7.0 | 0.09 | 0.81 | 0.04 | 94 | 1004.2 |
| 20260507041003 | 49 | 360 | 1.7 | 7.0 | 0.07 | 0.78 | 0.01 | 94 | 1004.4 |
| 20260507040504 | 49 | 360 | 2.6 | 7.0 | 0.08 | 0.78 | 0.01 | 94 | 1004.4 |
| 20260507040006 | 49 | 360 | 2.6 | 7.0 | 0.07 | 0.77 | 0.00 | 94 | 1004.0 |
| 20260507035503 | 50 | 360 | 1.7 | 7.8 | 0.08 | 0.77 | 0.77 | 94 | 1004.1 |
| 20260507035003 | 50 | 360 | 1.7 | 7.8 | 0.07 | 0.76 | 0.76 | 94 | 1004.0 |
| 20260507034547 | 50 | 360 | 1.7 | 7.0 | 0.06 | 0.75 | 0.75 | 94 | 1003.9 |
| 20260507034010 | 50 | 360 | 1.7 | 7.0 | 0.07 | 0.75 | 0.75 | 94 | 1003.6 |
| 20260507033512 | 50 | 360 | 2.6 | 13.0 | 0.07 | 0.74 | 0.74 | 93 | 1003.6 |
| 20260507033008 | 51 | 360 | 4.3 | 13.0 | 0.07 | 0.74 | 0.74 | 93 | 1003.5 |
| 20260507032505 | 51 | 360 | 3.5 | 10.4 | 0.07 | 0.73 | 0.73 | 93 | 1003.4 |
| 20260507032006 | 52 | 360 | 2.6 | 9.6 | 0.08 | 0.73 | 0.73 | 93 | 1003.4 |
| 20260507031511 | 54 | 360 | 3.5 | 9.6 | 0.08 | 0.72 | 0.72 | 94 | 1003.3 |
| 20260507031007 | 54 | 360 | 0.9 | 1.7 | 0.08 | 0.71 | 0.71 | 95 | 1003.1 |
| 20260507030502 | 54 | 360 | 0.0 | 1.7 | 0.09 | 0.70 | 0.70 | 95 | 1003.1 |
| 20260507030013 | 54 | 360 | 0.0 | 1.7 | 0.12 | 0.70 | 0.70 | 95 | 1003.0 |
| 20260507025502 | 54 | 360 | 0.0 | 1.7 | 0.13 | 0.69 | 0.69 | 95 | 1003.0 |
| 20260507025003 | 54 | 360 | 0.0 | 1.7 | 0.13 | 0.69 | 0.69 | 95 | 1003.0 |
| 20260507024509 | 54 | 360 | 0.0 | 0.9 | 0.14 | 0.69 | 0.69 | 95 | 1003.0 |
| 20260507024004 | 54 | 360 | 0.0 | 1.7 | 0.14 | 0.68 | 0.68 | 95 | 1003.0 |
| 20260507023508 | 54 | 360 | 0.0 | 1.7 | 0.14 | 0.67 | 0.67 | 95 | 1003.0 |
| 20260507023008 | 54 | 360 | 0.0 | 1.7 | 0.15 | 0.67 | 0.67 | 95 | 1003.1 |
| 20260507022505 | 54 | 360 | 0.0 | 1.7 | 0.15 | 0.66 | 0.66 | 95 | 1003.1 |
| 20260507022006 | 54 | 360 | 0.0 | 2.6 | 0.16 | 0.65 | 0.65 | 95 | 1003.2 |
| 20260507021508 | 55 | 360 | 0.0 | 2.6 | 0.15 | 0.64 | 0.64 | 95 | 1003.2 |
| 20260507021007 | 55 | 360 | 0.0 | 4.3 | 0.14 | 0.63 | 0.63 | 95 | 1003.3 |
| 20260507020507 | 55 | 360 | 0.9 | 5.2 | 0.12 | 0.61 | 0.61 | 95 | 1003.4 |
| 20260507020009 | 55 | 360 | 0.9 | 5.2 | 0.09 | 0.58 | 0.58 | 95 | 1003.4 |
| 20260507015506 | 55 | 360 | 0.9 | 5.2 | 0.07 | 0.56 | 0.56 | 95 | 1003.3 |
| 20260507015007 | 55 | 360 | 0.9 | 7.8 | 0.07 | 0.56 | 0.56 | 95 | 1003.2 |
| 20260507014521 | 55 | 360 | 1.7 | 8.7 | 0.06 | 0.55 | 0.55 | 95 | 1003.3 |
| 20260507014004 | 55 | 360 | 2.6 | 10.4 | 0.06 | 0.54 | 0.54 | 95 | 1003.3 |
| 20260507013504 | 55 | 360 | 1.7 | 10.4 | 0.05 | 0.52 | 0.52 | 95 | 1003.4 |
| 20260507013013 | 55 | 360 | 1.7 | 5.2 | 0.04 | 0.52 | 0.52 | 95 | 1003.5 |
| 20260507012504 | 55 | 360 | 2.6 | 8.7 | 0.03 | 0.51 | 0.51 | 95 | 1003.5 |
| 20260507012006 | 55 | 360 | 3.5 | 8.7 | 0.01 | 0.49 | 0.49 | 95 | 1003.5 |
| 20260507011521 | 55 | 360 | 1.7 | 7.8 | 0.01 | 0.49 | 0.49 | 95 | 1003.6 |
| 20260507011005 | 55 | 360 | 2.6 | 7.0 | 0.01 | 0.49 | 0.49 | 95 | 1003.8 |
| 20260507010506 | 55 | 360 | 1.7 | 5.2 | 0.01 | 0.49 | 0.49 | 95 | 1003.8 |
| 20260507010018 | 55 | 360 | 1.7 | 10.4 | 0.01 | 0.49 | 0.49 | 95 | 1003.8 |
| 20260507005507 | 55 | 360 | 0.9 | 10.4 | 0.01 | 0.49 | 0.49 | 95 | 1003.9 |
| 20260507005006 | 55 | 360 | 0.9 | 8.7 | 0.01 | 0.49 | 0.49 | 95 | 1004.0 |
| 20260507004508 | 55 | 360 | 1.7 | 9.6 | 0.01 | 0.49 | 0.49 | 95 | 1004.0 |
| 20260507004007 | 55 | 360 | 0.9 | 9.6 | 0.00 | 0.48 | 0.48 | 95 | 1004.1 |
| 20260507003512 | 55 | 360 | 1.7 | 5.2 | 0.00 | 0.48 | 0.48 | 95 | 1004.1 |
| 20260507003016 | 55 | 360 | 1.7 | 7.0 | 0.00 | 0.48 | 0.48 | 95 | 1004.2 |
| 20260507002506 | 55 | 360 | 0.9 | 7.0 | 0.00 | 0.48 | 0.48 | 94 | 1004.2 |
| 20260507002007 | 55 | 360 | 1.7 | 7.8 | 0.00 | 0.48 | 0.48 | 94 | 1004.3 |
| 20260507001517 | 55 | 360 | 0.9 | 7.8 | 0.00 | 0.49 | 0.48 | 94 | 1004.2 |
| 20260507001004 | 55 | 360 | 1.7 | 7.8 | 0.00 | 0.49 | 0.48 | 94 | 1004.2 |
| 20260507000507 | 55 | 360 | 2.6 | 7.0 | 0.00 | 0.49 | 0.48 | 94 | 1004.3 |
| 20260507000016 | 55 | 360 | 0.9 | 7.0 | 0.00 | 0.49 | 0.48 | 94 | 1004.4 |
| 20260506235507 | 55 | 360 | 0.9 | 5.2 | 0.00 | 0.49 | 0.48 | 94 | 1004.5 |
| 20260506235007 | 55 | 360 | 0.9 | 7.0 | 0.00 | 0.49 | 0.48 | 94 | 1004.5 |
| 20260506234516 | 55 | 360 | 1.7 | 7.0 | 0.01 | 0.49 | 0.48 | 94 | 1004.6 |
| 20260506234008 | 55 | 360 | 1.7 | 5.2 | 0.02 | 0.49 | 0.48 | 94 | 1004.6 |
| 20260506233508 | 55 | 360 | 0.0 | 7.8 | 0.02 | 0.49 | 0.48 | 94 | 1004.6 |
| 20260506233018 | 55 | 360 | 1.7 | 7.8 | 0.03 | 0.49 | 0.48 | 94 | 1004.6 |
| 20260506232510 | 55 | 360 | 4.3 | 7.8 | 0.03 | 0.49 | 0.48 | 94 | 1004.6 |
| 20260506232007 | 55 | 360 | 0.9 | 4.3 | 0.04 | 0.49 | 0.48 | 94 | 1004.7 |
| 20260506231515 | 55 | 360 | 0.9 | 4.3 | 0.04 | 0.49 | 0.48 | 94 | 1004.8 |
| 20260506231005 | 55 | 360 | 0.0 | 5.2 | 0.05 | 0.49 | 0.48 | 94 | 1004.8 |
| 20260506230501 | 56 | 360 | 0.9 | 5.2 | 0.05 | 0.49 | 0.48 | 94 | 1004.8 |
| 20260506230007 | 56 | 360 | 0.9 | 3.5 | 0.06 | 0.49 | 0.48 | 94 | 1004.8 |
| 20260506225503 | 56 | 360 | 1.7 | 3.5 | 0.06 | 0.49 | 0.48 | 94 | 1004.8 |
| 20260506225004 | 56 | 360 | 0.0 | 2.6 | 0.07 | 0.49 | 0.48 | 94 | 1004.9 |
| 20260506224526 | 56 | 360 | 0.9 | 2.6 | 0.06 | 0.48 | 0.47 | 94 | 1004.9 |
| 20260506224002 | 56 | 360 | 0.0 | 1.7 | 0.05 | 0.47 | 0.46 | 94 | 1004.9 |
| 20260506223503 | 56 | 360 | 0.0 | 3.5 | 0.06 | 0.47 | 0.46 | 94 | 1005.0 |
| 20260506223011 | 56 | 360 | 1.7 | 7.8 | 0.06 | 0.46 | 0.45 | 94 | 1005.0 |
| 20260506222506 | 56 | 360 | 0.9 | 7.8 | 0.07 | 0.46 | 0.45 | 94 | 1005.0 |
| 20260506222006 | 56 | 360 | 2.6 | 8.7 | 0.06 | 0.45 | 0.44 | 94 | 1005.0 |
| 20260506221518 | 56 | 360 | 3.5 | 9.6 | 0.07 | 0.45 | 0.44 | 94 | 1005.1 |
| 20260506221005 | 56 | 360 | 2.6 | 9.6 | 0.07 | 0.44 | 0.43 | 94 | 1005.2 |
| 20260506220506 | 56 | 360 | 4.3 | 10.4 | 0.07 | 0.44 | 0.43 | 94 | 1005.2 |
| 20260506220020 | 56 | 360 | 3.5 | 10.4 | 0.07 | 0.43 | 0.42 | 94 | 1005.3 |
| 20260506215503 | 56 | 360 | 2.6 | 13.0 | 0.07 | 0.43 | 0.42 | 94 | 1005.1 |
| 20260506215003 | 56 | 360 | 4.3 | 13.0 | 0.07 | 0.42 | 0.41 | 94 | 1005.2 |
| 20260506214503 | 56 | 360 | 1.7 | 7.8 | 0.07 | 0.42 | 0.41 | 94 | 1005.1 |
| 20260506214002 | 56 | 360 | 0.9 | 10.4 | 0.07 | 0.42 | 0.41 | 94 | 1005.1 |
| 20260506213503 | 56 | 360 | 2.6 | 10.4 | 0.07 | 0.41 | 0.40 | 94 | 1005.0 |
| 20260506213006 | 56 | 360 | 1.7 | 7.8 | 0.06 | 0.40 | 0.39 | 94 | 1005.0 |
| 20260506212505 | 56 | 360 | 1.7 | 8.7 | 0.06 | 0.39 | 0.38 | 94 | 1005.1 |
| 20260506212006 | 56 | 360 | 2.6 | 8.7 | 0.07 | 0.39 | 0.38 | 93 | 1005.2 |
| 20260506211519 | 56 | 360 | 1.7 | 8.7 | 0.07 | 0.38 | 0.37 | 93 | 1005.2 |
| 20260506211006 | 56 | 360 | 2.6 | 9.6 | 0.06 | 0.37 | 0.36 | 93 | 1005.3 |
| 20260506210509 | 56 | 360 | 0.9 | 16.5 | 0.07 | 0.37 | 0.36 | 93 | 1005.3 |
| 20260506210021 | 56 | 360 | 1.7 | 16.5 | 0.07 | 0.36 | 0.35 | 93 | 1005.4 |
| 20260506205511 | 56 | 360 | 2.6 | 8.7 | 0.08 | 0.36 | 0.35 | 93 | 1005.5 |
| 20260506205010 | 56 | 360 | 0.9 | 4.3 | 0.08 | 0.35 | 0.34 | 93 | 1005.5 |
| 20260506204524 | 56 | 360 | 0.9 | 9.6 | 0.09 | 0.35 | 0.34 | 93 | 1005.5 |
| 20260506204010 | 56 | 360 | 1.7 | 9.6 | 0.10 | 0.35 | 0.34 | 93 | 1005.5 |
| 20260506203503 | 56 | 360 | 1.7 | 9.6 | 0.10 | 0.34 | 0.33 | 93 | 1005.5 |
| 20260506203010 | 56 | 360 | 3.5 | 7.0 | 0.11 | 0.34 | 0.33 | 93 | 1005.6 |
| 20260506202502 | 56 | 360 | 0.9 | 7.8 | 0.11 | 0.33 | 0.32 | 93 | 1005.6 |
| 20260506202002 | 56 | 360 | 2.6 | 8.7 | 0.11 | 0.32 | 0.31 | 93 | 1005.6 |
| 20260506201508 | 56 | 360 | 2.6 | 8.7 | 0.11 | 0.31 | 0.30 | 93 | 1005.7 |
| 20260506201005 | 57 | 360 | 2.6 | 7.0 | 0.12 | 0.31 | 0.30 | 92 | 1005.6 |
| 20260506200506 | 57 | 360 | 1.7 | 8.7 | 0.12 | 0.30 | 0.29 | 92 | 1005.6 |
| 20260506200016 | 57 | 360 | 1.7 | 8.7 | 0.13 | 0.29 | 0.28 | 92 | 1005.6 |
| 20260506195509 | 57 | 360 | 1.7 | 7.0 | 0.13 | 0.28 | 0.27 | 93 | 1005.6 |
| 20260506195009 | 57 | 360 | 1.7 | 10.4 | 0.14 | 0.27 | 0.26 | 92 | 1005.7 |
| 20260506194525 | 57 | 360 | 1.7 | 10.4 | 0.14 | 0.26 | 0.25 | 92 | 1005.8 |
| 20260506194012 | 57 | 360 | 1.7 | 7.0 | 0.14 | 0.25 | 0.24 | 92 | 1005.8 |
| 20260506193507 | 58 | 360 | 2.6 | 5.2 | 0.14 | 0.24 | 0.23 | 92 | 1005.7 |
| 20260506193031 | 58 | 360 | 0.0 | 7.0 | 0.15 | 0.23 | 0.22 | 92 | 1005.7 |
| 20260506192503 | 58 | 360 | 2.6 | 7.0 | 0.14 | 0.22 | 0.21 | 92 | 1005.7 |
| 20260506192004 | 58 | 360 | 2.6 | 7.0 | 0.14 | 0.21 | 0.20 | 92 | 1005.7 |
| 20260506191519 | 58 | 360 | 2.6 | 7.8 | 0.14 | 0.20 | 0.19 | 92 | 1005.7 |
| 20260506191004 | 58 | 360 | 2.6 | 7.8 | 0.14 | 0.19 | 0.18 | 91 | 1005.7 |
| 20260506190506 | 58 | 360 | 0.9 | 2.6 | 0.13 | 0.18 | 0.17 | 91 | 1005.6 |
| 20260506190011 | 58 | 360 | 0.9 | 2.6 | 0.12 | 0.16 | 0.15 | 91 | 1005.5 |
| 20260506185506 | 59 | 360 | 0.9 | 2.6 | 0.11 | 0.15 | 0.14 | 91 | 1005.6 |
| 20260506185009 | 59 | 360 | 0.0 | 2.6 | 0.10 | 0.13 | 0.12 | 91 | 1005.8 |
| 20260506184524 | 59 | 360 | 0.9 | 2.6 | 0.09 | 0.12 | 0.11 | 90 | 1005.9 |
| 20260506184008 | 59 | 360 | 0.9 | 2.6 | 0.08 | 0.11 | 0.10 | 90 | 1005.9 |
| 20260506183507 | 59 | 360 | 0.0 | 2.6 | 0.07 | 0.10 | 0.09 | 90 | 1006.1 |
| 20260506183020 | 60 | 360 | 0.9 | 2.6 | 0.05 | 0.08 | 0.07 | 89 | 1006.0 |
| 20260506182507 | 60 | 360 | 0.0 | 2.6 | 0.05 | 0.08 | 0.07 | 89 | 1006.0 |
| 20260506182011 | 60 | 360 | 0.9 | 3.5 | 0.04 | 0.07 | 0.06 | 88 | 1006.2 |
| 20260506181527 | 60 | 360 | 0.9 | 3.5 | 0.03 | 0.06 | 0.05 | 87 | 1006.3 |
| 20260506181004 | 61 | 360 | 1.7 | 3.5 | 0.02 | 0.05 | 0.04 | 86 | 1006.3 |
| 20260506180504 | 61 | 360 | 0.0 | 3.5 | 0.03 | 0.05 | 0.04 | 86 | 1006.4 |
| 20260506180010 | 61 | 360 | 0.0 | 2.6 | 0.02 | 0.04 | 0.03 | 84 | 1006.3 |
| 20260506175504 | 61 | 360 | 0.9 | 2.6 | 0.02 | 0.04 | 0.03 | 83 | 1006.5 |
| 20260506175005 | 62 | 360 | 0.9 | 4.3 | 0.01 | 0.03 | 0.02 | 83 | 1006.8 |
| 20260506174523 | 62 | 360 | 1.7 | 5.2 | 0.01 | 0.03 | 0.02 | 82 | 1006.6 |
| 20260506174012 | 62 | 360 | 1.7 | 4.3 | 0.02 | 0.03 | 0.02 | 82 | 1006.7 |
| 20260506173510 | 62 | 360 | 1.7 | 4.3 | 0.02 | 0.03 | 0.02 | 84 | 1006.6 |
| 20260506173016 | 61 | 360 | 0.9 | 4.3 | 0.02 | 0.03 | 0.02 | 85 | 1006.5 |
| 20260506172508 | 61 | 360 | 0.9 | 2.6 | 0.02 | 0.03 | 0.02 | 86 | 1006.6 |
| 20260506172015 | 61 | 360 | 0.9 | 3.5 | 0.02 | 0.03 | 0.02 | 86 | 1006.6 |
| 20260506171522 | 61 | 360 | 0.9 | 3.5 | 0.02 | 0.03 | 0.02 | 85 | 1006.8 |
| 20260506171011 | 61 | 360 | 0.9 | 2.6 | 0.02 | 0.03 | 0.02 | 86 | 1007.1 |
| 20260506170508 | 61 | 360 | 0.0 | 2.6 | 0.01 | 0.02 | 0.01 | 86 | 1007.3 |
| 20260506170024 | 61 | 360 | 0.9 | 2.6 | 0.01 | 0.02 | 0.01 | 84 | 1007.1 |
| 20260506165502 | 61 | 360 | 0.0 | 2.6 | 0.01 | 0.02 | 0.01 | 83 | 1007.6 |
| 20260506165007 | 61 | 360 | 0.9 | 2.6 | 0.01 | 0.02 | 0.01 | 82 | 1007.7 |
| 20260506164524 | 62 | 360 | 0.9 | 3.5 | 0.01 | 0.02 | 0.01 | 80 | 1007.9 |
| 20260506164007 | 62 | 360 | 0.9 | 7.0 | 0.00 | 0.01 | 0.00 | 79 | 1007.7 |
| 20260506163507 | 62 | 360 | 0.9 | 7.0 | 0.00 | 0.01 | 0.00 | 77 | 1007.8 |
| 20260506163017 | 62 | 360 | 1.7 | 4.3 | 0.00 | 0.01 | 0.00 | 76 | 1008.2 |
| 20260506162512 | 62 | 360 | 0.9 | 3.5 | 0.00 | 0.01 | 0.00 | 76 | 1008.1 |
| 20260506162012 | 62 | 360 | 1.7 | 5.2 | 0.00 | 0.01 | 0.00 | 76 | 1008.1 |
| 20260506161524 | 62 | 360 | 2.6 | 5.2 | 0.00 | 0.01 | 0.00 | 76 | 1008.1 |
| 20260506161011 | 62 | 360 | 1.7 | 7.0 | 0.00 | 0.01 | 0.00 | 76 | 1008.1 |
| 20260506160508 | 63 | 360 | 1.7 | 7.0 | 0.00 | 0.01 | 0.00 | 76 | 1008.0 |
| 20260506160023 | 62 | 360 | 1.7 | 7.0 | 0.00 | 0.01 | 0.00 | 76 | 1007.9 |
| 20260506155509 | 62 | 360 | 1.7 | 4.3 | 0.00 | 0.01 | 0.00 | 75 | 1007.9 |
| 20260506155010 | 62 | 360 | 0.9 | 3.5 | 0.00 | 0.01 | 0.00 | 75 | 1008.0 |
| 20260506154526 | 62 | 360 | 0.0 | 4.3 | 0.00 | 0.01 | 0.00 | 76 | 1008.1 |
| 20260506154007 | 62 | 360 | 1.7 | 4.3 | 0.00 | 0.01 | 0.00 | 75 | 1008.2 |
| 20260506153508 | 62 | 360 | 1.7 | 5.2 | 0.00 | 0.01 | 0.00 | 76 | 1008.3 |
| 20260506153015 | 61 | 360 | 0.9 | 5.2 | 0.00 | 0.01 | 0.00 | 76 | 1008.4 |
| 20260506152510 | 61 | 360 | 1.7 | 5.2 | 0.00 | 0.01 | 0.00 | 76 | 1008.2 |
| 20260506152009 | 61 | 360 | 1.7 | 3.5 | 0.00 | 0.01 | 0.00 | 76 | 1008.2 |
| 20260506151520 | 61 | 360 | 0.9 | 2.6 | 0.00 | 0.01 | 0.00 | 76 | 1008.0 |
| 20260506151012 | 61 | 360 | 0.9 | 3.5 | 0.00 | 0.01 | 0.00 | 76 | 1008.0 |
| 20260506150508 | 61 | 360 | 1.7 | 3.5 | 0.00 | 0.01 | 0.00 | 77 | 1008.1 |
| 20260506150024 | 60 | 360 | 0.0 | 4.3 | 0.00 | 0.01 | 0.00 | 77 | 1008.1 |
| 20260506145512 | 60 | 360 | 2.6 | 4.3 | 0.00 | 0.01 | 0.00 | 77 | 1008.0 |
| 20260506145009 | 60 | 360 | 0.9 | 3.5 | 0.00 | 0.01 | 0.00 | 78 | 1008.0 |
| 20260506144548 | 60 | 360 | 0.9 | 5.2 | 0.00 | 0.01 | 0.00 | 78 | 1008.2 |
| 20260506144010 | 60 | 360 | 2.6 | 5.2 | 0.00 | 0.01 | 0.00 | 78 | 1008.3 |
| 20260506143509 | 60 | 360 | 1.7 | 7.0 | 0.00 | 0.01 | 0.00 | 78 | 1008.5 |
| 20260506143026 | 59 | 360 | 1.7 | 7.8 | 0.00 | 0.01 | 0.00 | 78 | 1008.4 |
| 20260506142509 | 60 | 360 | 0.9 | 7.8 | 0.00 | 0.01 | 0.00 | 78 | 1008.6 |
| 20260506142008 | 60 | 360 | 0.9 | 7.0 | 0.00 | 0.01 | 0.00 | 78 | 1008.4 |
| 20260506141516 | 60 | 360 | 1.7 | 7.0 | 0.00 | 0.01 | 0.00 | 77 | 1008.5 |
| 20260506141006 | 60 | 360 | 0.0 | 2.6 | 0.00 | 0.01 | 0.00 | 78 | 1008.5 |
| 20260506140504 | 60 | 360 | 0.9 | 1.7 | 0.00 | 0.01 | 0.00 | 78 | 1008.6 |
| 20260506140005 | 60 | 360 | 0.9 | 1.7 | 0.00 | 0.01 | 0.00 | 78 | 1008.7 |
| 20260506135504 | 59 | 360 | 0.9 | 1.7 | 0.00 | 0.01 | 0.00 | 78 | 1008.6 |
| 20260506135003 | 59 | 360 | 0.0 | 1.7 | 0.00 | 0.01 | 0.00 | 79 | 1008.6 |
| 20260506134504 | 59 | 360 | 0.0 | 1.7 | 0.00 | 0.01 | 0.00 | 79 | 1008.6 |
| 20260506134004 | 59 | 360 | 0.0 | 1.7 | 0.00 | 0.01 | 0.00 | 79 | 1008.7 |
| 20260506133511 | 59 | 360 | 0.0 | 1.7 | 0.00 | 0.01 | 0.00 | 79 | 1008.7 |
| 20260506133011 | 59 | 360 | 0.0 | 2.6 | 0.00 | 0.01 | 0.00 | 78 | 1008.7 |
| 20260506132508 | 59 | 360 | 0.9 | 2.6 | 0.00 | 0.01 | 0.00 | 79 | 1008.7 |
| 20260506132006 | 59 | 360 | 0.0 | 1.7 | 0.00 | 0.01 | 0.00 | 79 | 1008.9 |
| 20260506131519 | 59 | 360 | 0.0 | 1.7 | 0.00 | 0.01 | 0.00 | 79 | 1008.8 |
| 20260506131007 | 59 | 360 | 0.9 | 1.7 | 0.00 | 0.01 | 0.00 | 79 | 1008.8 |
| 20260506130512 | 59 | 360 | 0.9 | 1.7 | 0.00 | 0.01 | 0.00 | 80 | 1009.0 |
| 20260506130021 | 59 | 360 | 0.0 | 1.7 | 0.00 | 0.01 | 0.00 | 80 | 1009.0 |
| 20260506125503 | 58 | 360 | 0.0 | 3.5 | 0.00 | 0.01 | 0.00 | 81 | 1009.1 |
| 20260506125002 | 58 | 360 | 1.7 | 3.5 | 0.00 | 0.01 | 0.00 | 81 | 1009.1 |
| 20260506124504 | 58 | 360 | 0.9 | 2.6 | 0.00 | 0.01 | 0.00 | 82 | 1009.3 |
| 20260506124003 | 57 | 360 | 1.7 | 2.6 | 0.00 | 0.01 | 0.00 | 83 | 1009.3 |
| 20260506123504 | 57 | 161 | 0.9 | 2.6 | 0.00 | 0.01 | 0.00 | 83 | 1009.6 |
| 20260506123010 | 56 | 360 | 0.0 | 2.6 | 0.00 | 0.01 | 0.00 | 83 | 1009.6 |
| 20260506122506 | 56 | 360 | 1.7 | 2.6 | 0.00 | 0.01 | 0.00 | 84 | 1009.5 |
| 20260506122007 | 56 | 360 | 0.0 | 2.6 | 0.00 | 0.01 | 0.00 | 84 | 1009.6 |
| 20260506121514 | 56 | 360 | 0.0 | 4.3 | 0.00 | 0.01 | 0.00 | 85 | 1009.7 |
| 20260506121007 | 56 | 360 | 0.9 | 4.3 | 0.00 | 0.01 | 0.00 | 85 | 1009.4 |
| 20260506120507 | 55 | 360 | 0.9 | 2.6 | 0.00 | 0.01 | 0.00 | 86 | 1009.4 |
| 20260506120024 | 55 | 360 | 1.7 | 2.6 | 0.00 | 0.01 | 0.00 | 86 | 1009.5 |
| 20260506115514 | 55 | 360 | 0.0 | 2.6 | 0.00 | 0.01 | 0.00 | 88 | 1009.5 |
| 20260506115009 | 54 | 360 | 0.9 | 2.6 | 0.00 | 0.01 | 0.00 | 87 | 1009.5 |
| 20260506114526 | 54 | 360 | 0.9 | 3.5 | 0.00 | 0.01 | 0.00 | 88 | 1009.6 |
| 20260506114007 | 54 | 360 | 0.9 | 3.5 | 0.00 | 0.01 | 0.00 | 88 | 1009.4 |
| 20260506113504 | 54 | 360 | 1.7 | 2.6 | 0.00 | 0.01 | 0.00 | 89 | 1009.4 |
| 20260506113006 | 54 | 360 | 0.9 | 1.7 | 0.00 | 0.01 | 0.00 | 90 | 1009.6 |
| 20260506112503 | 53 | 360 | 0.0 | 1.7 | 0.00 | 0.01 | 0.00 | 91 | 1009.7 |
| 20260506112007 | 53 | 360 | 0.0 | 1.7 | 0.00 | 0.01 | 0.00 | 92 | 1009.7 |
| 20260506111509 | 53 | 360 | 0.0 | 1.7 | 0.00 | 0.01 | 0.00 | 93 | 1009.7 |
| 20260506111008 | 52 | 360 | 0.0 | 1.7 | 0.00 | 0.01 | 0.00 | 93 | 1009.8 |
| 20260506110509 | 52 | 360 | 0.0 | 1.7 | 0.00 | 0.01 | 0.00 | 94 | 1009.7 |
| 20260506110015 | 52 | 360 | 0.0 | 1.7 | 0.00 | 0.01 | 0.00 | 94 | 1009.9 |
| 20260506105508 | 51 | 360 | 0.0 | 0.0 | 0.00 | 0.01 | 0.00 | 94 | 1009.7 |